Waarnemingen

Advertentie
Mijn weer
Rotterdam Zestienhoven, Nederland (6344): temperatuur & dauwpunt: 13.08.2018 17:00:00 - 19.08.2018 17:00:00 (CEST)Rotterdam Zestienhoven, Nederland (6344): temperatuur 5cm: 13.08.2018 17:00:00 - 19.08.2018 17:00:00 (CEST)Rotterdam Zestienhoven, Nederland (6344): windsnelheid & windstoten: 13.08.2018 17:00:00 - 19.08.2018 17:00:00 (CEST)Rotterdam Zestienhoven, Nederland (6344): windrichting: 13.08.2018 17:00:00 - 19.08.2018 17:00:00 (CEST)Rotterdam Zestienhoven, Nederland (6344): luchtdruk: 13.08.2018 17:00:00 - 19.08.2018 17:00:00 (CEST)Rotterdam Zestienhoven, Nederland (6344): zicht: 13.08.2018 17:00:00 - 19.08.2018 17:00:00 (CEST)Rotterdam Zestienhoven, Nederland (6344): neerslag: 13.08.2018 17:00:00 - 19.08.2018 17:00:00 (CEST)
Datum & Tijd tt [°C] td [°C] tt 5cm [°C] ff [km/u] ff [kn] fx [km/u] fx [kn] dd ppp [hPa] vv [km] rr [mm]
19.08.2018 17:00:00 21,9 15,7 21,9 28 15 40 21 ZW 1018,4 10 0,0
19.08.2018 16:00:00 22,4 15,6 22,7 28 15 43 23 ZW 1018,6 10 0,0
19.08.2018 15:00:00 21,8 15,1 23,3 28 15 43 23 ZW 1019,0 10 0,0
19.08.2018 14:00:00 21,6 15,1 22,7 26 14 43 23 ZZW 1019,3 10 0,0
19.08.2018 13:00:00 21,4 15,3 22,5 28 15 47 25 ZZW 1019,4 10 0,0
19.08.2018 12:00:00 19,8 16,1 20,4 22 12 32 18 ZZW 1019,9 10 0,0
19.08.2018 11:00:00 19,0 15,5 19,1 21 11 32 18 ZZW 1020,1 10 0,0
19.08.2018 10:00:00 18,4 15,9 18,5 16 9 25 14 ZZW 1020,2 10 0,0
19.08.2018 09:00:00 17,9 15,4 18,0 15 8 29 16 Z 1020,3 10 0,0
19.08.2018 08:00:00 17,4 15,1 17,2 13 7 29 16 Z 1020,3 10 0,0
19.08.2018 07:00:00 17,1 14,9 16,8 15 8 29 16 Z 1020,3 10 0,0
19.08.2018 06:00:00 17,5 14,7 17,1 15 8 22 12 Z 1020,5 10 0,0
19.08.2018 05:00:00 17,9 14,5 17,4 15 8 22 12 ZW 1020,7 10 0,0
19.08.2018 04:00:00 18,2 14,3 17,7 16 9 25 14 ZW 1021,1 10 0,0
19.08.2018 03:00:00 18,5 14,4 17,8 11 6 22 12 ZW 1021,2 10 0,0
19.08.2018 02:00:00 18,8 14,4 18,3 15 8 25 14 ZW 1021,5 10 0,0
19.08.2018 01:00:00 18,8 14,8 18,3 16 9 25 14 ZW 1021,7 10 0,0
19.08.2018 00:00:00 18,9 15,0 18,4 18 10 25 14 WZW 1021,9 10 0,0
18.08.2018 23:00:00 18,7 15,2 18,1 13 7 22 12 WZW 1021,8 10 0,0
18.08.2018 22:00:00 18,9 14,9 18,3 15 8 22 12 WZW 1021,9 10 0,0
18.08.2018 21:00:00 19,2 14,5 18,4 16 9 29 16 WZW 1021,5 10 0,0
18.08.2018 20:00:00 19,7 14,9 19,4 13 7 25 14 WZW 1021,6 10 0,0
18.08.2018 19:00:00 20,2 14,7 20,4 18 10 32 18 W 1021,4 10 0,0
18.08.2018 18:00:00 20,7 13,6 21,3 18 10 36 19 WZW 1021,3 10 0,0
18.08.2018 17:00:00 21,7 14,5 21,8 24 13 36 19 WZW 1021,5 10 0,0
18.08.2018 16:00:00 21,1 14,4 21,0 22 12 32 18 WZW 1021,6 10 0,0
18.08.2018 15:00:00 20,8 14,2 21,1 21 11 32 18 WZW 1021,7 10 0,0
18.08.2018 14:00:00 20,0 13,8 20,4 22 12 32 18 WZW 1021,8 10 0,0
18.08.2018 13:00:00 19,5 14,3 19,5 21 11 32 18 ZW 1021,8 10 0,0
18.08.2018 12:00:00 19,8 14,8 20,4 16 9 32 18 ZW 1021,7 10 0,0
18.08.2018 11:00:00 19,5 14,6 19,9 22 12 29 16 ZW 1021,6 10 0,0
18.08.2018 10:00:00 18,9 15,0 19,9 21 11 29 16 ZZW 1021,3 10 0,0
18.08.2018 09:00:00 17,8 15,3 18,3 16 9 25 14 Z 1021,2 10 0,0
18.08.2018 08:00:00 16,1 14,8 15,8 15 8 32 18 Z 1021,0 10 0,0
18.08.2018 07:00:00 15,2 14,0 14,5 15 8 25 14 Z 1020,8 10 0,0
18.08.2018 06:00:00 15,0 13,6 14,3 16 9 22 12 Z 1020,5 10 0,0
18.08.2018 05:00:00 15,3 13,5 14,4 13 7 18 10 Z 1020,6 10 0,0
18.08.2018 04:00:00 15,8 13,6 14,8 13 7 18 10 Z 1020,9 10 0,0
18.08.2018 03:00:00 15,8 13,6 14,2 11 6 22 12 ZZW 1020,8 10 0,0
18.08.2018 02:00:00 15,5 13,3 13,6 9 5 18 10 ZZW 1020,9 10 0,0
18.08.2018 01:00:00 15,8 12,9 14,0 9 5 18 10 Z 1021,0 10 0,0
18.08.2018 00:00:00 14,7 12,3 11,0 5 3 14 8 ZZW 1021,0 10 0,0
17.08.2018 23:00:00 13,8 10,8 11,5 9 5 14 8 ZW 1020,9 10 0,0
17.08.2018 22:00:00 15,2 11,1 11,9 8 4 11 6 WZW 1020,9 10 0,0
17.08.2018 21:00:00 16,3 11,2 14,5 9 5 11 6 WZW 1020,7 10 0,0
17.08.2018 20:00:00 18,9 11,2 18,8 9 5 18 10 W 1020,1 10 0,0
17.08.2018 19:00:00 20,0 12,1 21,5 15 8 25 14 WNW 1019,8 10 0,0
17.08.2018 18:00:00 20,5 11,6 22,6 16 9 29 16 W 1019,7 10 0,0
17.08.2018 17:00:00 21,6 11,5 23,9 15 8 29 16 W 1019,8 10 0,0
17.08.2018 16:00:00 21,7 11,8 24,4 16 9 29 16 W 1019,8 10 0,0
17.08.2018 15:00:00 21,6 11,7 22,8 15 8 25 14 W 1019,7 10 0,0
17.08.2018 14:00:00 21,5 12,0 24,0 11 6 25 14 WNW 1019,5 10 0,0
17.08.2018 13:00:00 21,4 11,6 24,1 13 7 25 14 WNW 1019,1 10 0,0
17.08.2018 12:00:00 21,4 11,9 24,0 11 6 22 12 WZW 1018,8 10 0,0
17.08.2018 11:00:00 20,8 13,2 22,2 8 4 18 10 W 1018,7 10 0,0
17.08.2018 10:00:00 19,5 14,8 20,4 8 4 11 6 W 1018,2 10 0,0
17.08.2018 09:00:00 16,4 15,5 16,7 2 1 4 2 - 1017,6 10 0,0
17.08.2018 08:00:00 14,6 14,6 11,9 2 1 4 2 ZW 1017,3 5 0,0
17.08.2018 07:00:00 14,1 14,1 11,2 2 1 4 2 Z 1016,7 7 0,0
17.08.2018 06:00:00 14,2 14,2 12,3 2 1 7 4 ZW 1016,1 3,4 0,0
17.08.2018 05:00:00 15,1 14,9 13,8 4 2 11 6 NW 1016,1 10 0,0
17.08.2018 04:00:00 15,6 15,3 13,6 2 1 7 4 ZZW 1016,1 10 0,0
17.08.2018 03:00:00 15,9 15,0 15,4 5 3 11 6 WZW 1015,8 10 0,1
17.08.2018 02:00:00 16,4 15,7 15,8 8 4 14 8 ZW 1015,3 10 0,4
17.08.2018 01:00:00 16,3 15,2 15,7 11 6 18 10 ZW 1015,7 10 3,5
17.08.2018 00:00:00 16,5 15,1 16,2 15 8 22 12 W 1015,5 10 1,1
16.08.2018 23:00:00 16,6 15,3 15,1 2 1 7 4 - 1015,3 10 0,0
16.08.2018 22:00:00 16,4 15,3 14,8 4 2 7 4 NO 1015,2 10 0,0
16.08.2018 21:00:00 17,1 15,1 16,4 9 5 14 8 O 1014,7 10 0,0
16.08.2018 20:00:00 18,1 15,3 17,6 8 4 14 8 NO 1014,4 10 0,0
16.08.2018 19:00:00 19,2 15,8 20,2 11 6 18 10 N 1014,9 10 0,0
16.08.2018 18:00:00 19,9 16,5 20,5 15 8 29 16 NW 1015,1 10 0,0
16.08.2018 17:00:00 21,6 15,2 22,7 18 10 32 18 W 1014,8 10 0,0
16.08.2018 16:00:00 22,1 15,4 22,4 21 11 32 18 W 1014,8 10 0,0
16.08.2018 15:00:00 21,6 14,8 21,8 24 13 40 21 WZW 1014,8 10 0,0
16.08.2018 14:00:00 21,1 14,8 21,6 26 14 36 19 ZW 1014,9 10 0,0
16.08.2018 13:00:00 20,5 14,9 20,7 22 12 36 19 ZW 1015,0 10 0,0
16.08.2018 12:00:00 19,8 14,4 20,0 26 14 47 25 ZW 1015,2 10 0,0
16.08.2018 11:00:00 20,0 14,8 20,2 22 12 - - ZW 1015,2 10 -
16.08.2018 10:00:00 21,0 15,5 22,1 22 12 36 19 ZZW 1015,1 10 0,0
16.08.2018 09:00:00 19,1 15,3 19,5 18 10 29 16 ZZW 1015,1 10 0,0
16.08.2018 08:00:00 17,3 15,1 17,1 15 8 29 16 Z 1015,5 10 0,0
16.08.2018 07:00:00 16,6 14,5 15,9 16 9 25 14 Z 1015,7 10 0,0
16.08.2018 06:00:00 16,6 14,3 15,8 18 10 29 16 ZZW 1015,7 10 0,0
16.08.2018 05:00:00 17,9 14,4 17,2 21 11 32 18 ZZW 1015,7 10 0,0
16.08.2018 04:00:00 18,0 14,4 17,2 16 9 32 18 ZZW 1016,0 10 0,0
16.08.2018 03:00:00 17,3 14,1 16,1 18 10 32 18 ZW 1016,3 10 0,0
16.08.2018 02:00:00 17,7 13,9 16,5 21 11 29 16 ZW 1016,7 10 0,0
16.08.2018 01:00:00 18,1 15,1 16,6 15 8 25 14 ZW 1017,1 10 0,0
16.08.2018 00:00:00 17,8 15,2 17,0 11 6 18 10 ZW 1017,4 10 0,0
15.08.2018 23:00:00 18,5 15,6 17,5 11 6 18 10 ZW 1017,6 10 0,0
15.08.2018 22:00:00 18,4 15,7 17,3 8 4 18 10 WZW 1017,7 10 0,0
15.08.2018 21:00:00 19,7 16,1 19,1 11 6 22 12 ZW 1017,7 10 0,0
15.08.2018 20:00:00 20,2 16,2 20,1 13 7 25 14 WZW 1017,7 10 0,0
15.08.2018 19:00:00 20,7 15,8 20,7 18 10 29 16 ZW 1018,0 10 0,0
15.08.2018 18:00:00 20,6 15,9 20,8 13 7 22 12 ZW 1018,4 10 0,0
15.08.2018 17:00:00 19,8 15,8 19,7 18 10 32 18 ZW 1018,6 10 0,0
15.08.2018 16:00:00 19,9 15,2 20,1 24 13 36 19 ZW 1018,8 10 0,0
15.08.2018 15:00:00 20,2 14,6 20,5 16 9 36 19 ZW 1018,9 10 0,0
15.08.2018 14:00:00 21,1 15,0 22,3 22 12 36 19 WZW 1018,7 10 0,0
15.08.2018 13:00:00 21,3 15,2 22,0 26 14 40 21 ZW 1018,5 10 0,0
15.08.2018 12:00:00 20,2 16,3 20,2 22 12 32 18 WZW 1018,4 10 0,0
15.08.2018 11:00:00 19,8 17,1 19,6 15 8 29 16 ZW 1018,5 10 0,0
15.08.2018 10:00:00 20,7 16,4 20,6 18 10 29 16 WZW 1018,2 10 0,0
15.08.2018 09:00:00 20,0 17,7 20,1 15 8 22 12 ZZW 1017,8 10 0,0
15.08.2018 08:00:00 19,4 17,5 19,1 13 7 29 16 ZZW 1017,5 8 0,0
15.08.2018 07:00:00 18,6 17,0 17,6 13 7 22 12 ZZW 1017,1 8 0,0
15.08.2018 06:00:00 18,7 16,7 18,1 15 8 22 12 ZW 1017,0 10 0,0
15.08.2018 05:00:00 18,5 16,2 18,2 18 10 25 14 ZW 1017,1 10 0,0
15.08.2018 04:00:00 18,6 15,6 18,1 18 10 29 16 ZW 1017,3 10 0,0
15.08.2018 03:00:00 18,9 15,7 18,3 18 10 25 14 ZW 1017,3 10 0,0
15.08.2018 02:00:00 19,2 16,3 18,6 15 8 22 12 ZW 1017,5 10 0,0
15.08.2018 01:00:00 18,5 15,8 17,3 11 6 18 10 ZW 1017,6 10 0,0
15.08.2018 00:00:00 17,1 14,4 15,7 11 6 18 10 ZW 1017,6 10 0,0
14.08.2018 23:00:00 18,2 14,6 17,1 9 5 18 10 WZW 1017,6 10 0,0
14.08.2018 22:00:00 18,6 14,2 17,4 11 6 22 12 WZW 1017,6 10 0,0
14.08.2018 21:00:00 18,7 14,5 17,9 8 4 14 8 W 1017,2 10 0,0
14.08.2018 20:00:00 18,7 14,5 18,4 13 7 25 14 W 1017,0 10 0,0
14.08.2018 19:00:00 19,5 14,3 20,5 21 11 29 16 WZW 1016,7 10 0,0
14.08.2018 18:00:00 20,2 16,4 20,5 13 7 29 16 W 1016,6 10 0,0
14.08.2018 17:00:00 18,9 16,9 18,9 9 5 25 14 W 1016,6 10 0,3
14.08.2018 16:00:00 19,2 16,0 19,6 13 7 25 14 W 1016,5 10 0,0
14.08.2018 15:00:00 19,9 15,2 21,9 15 8 29 16 WNW 1016,1 10 0,0
14.08.2018 14:00:00 20,0 14,9 21,2 15 8 29 16 W 1015,7 10 0,0
14.08.2018 13:00:00 20,9 13,5 23,7 18 10 29 16 W 1014,8 10 0,0
14.08.2018 12:00:00 21,2 13,8 25,1 18 10 29 16 WNW 1014,6 10 0,0
14.08.2018 11:00:00 20,4 14,4 21,1 21 11 32 18 W 1014,2 10 0,0
14.08.2018 10:00:00 20,0 14,5 19,3 18 10 32 18 WNW 1013,6 10 0,0
14.08.2018 09:00:00 19,4 14,4 20,4 21 11 32 18 WNW 1012,9 10 0,0
14.08.2018 08:00:00 18,6 14,7 17,2 16 9 29 16 WNW 1012,2 10 0,0
14.08.2018 07:00:00 17,5 14,4 16,5 16 9 25 14 WNW 1011,4 10 0,0
14.08.2018 06:00:00 17,7 14,4 17,0 15 8 29 16 WNW 1010,9 10 0,0
14.08.2018 05:00:00 18,3 15,0 17,6 16 9 29 16 WNW 1010,2 10 0,0
14.08.2018 04:00:00 18,4 16,0 17,8 16 9 25 14 WNW 1009,7 10 0,0
14.08.2018 03:00:00 18,6 16,1 17,8 11 6 18 10 W 1009,2 10 0,0
14.08.2018 02:00:00 18,2 16,7 17,4 11 6 14 8 WZW 1009,1 10 0,0
14.08.2018 01:00:00 17,8 16,3 16,7 8 4 18 10 W 1008,7 10 0,0
14.08.2018 00:00:00 18,2 16,2 16,9 11 6 18 10 W 1008,3 10 0,0
13.08.2018 23:00:00 17,7 15,5 16,9 9 5 22 12 WZW 1007,9 10 0,0
13.08.2018 22:00:00 17,9 15,6 16,8 13 7 18 10 WZW 1007,6 10 0,0
13.08.2018 21:00:00 18,6 15,3 18,0 9 5 22 12 W 1007,4 10 0,0
13.08.2018 20:00:00 19,2 15,4 19,1 15 8 29 16 W 1006,9 10 0,0
13.08.2018 19:00:00 20,4 15,5 19,9 15 8 29 16 W 1006,6 10 0,0
13.08.2018 18:00:00 20,2 15,9 20,2 15 8 32 18 W 1006,3 10 0,0
13.08.2018 17:00:00 19,9 15,4 21,0 21 11 36 19 W 1006,0 10 0,0

tt = temperatuur
td = dauwpunt
tt 5cm = temperatuur 5cm
ff = windsnelheid
fx = windstoten
dd = windrichting
ppp = luchtdruk
vv = zicht
rr = neerslag

Weerstations in de omgeving